Time,TemperatureF,DewpointF,PressureIn,WindDirection,WindDirectionDegrees,WindSpeedMPH,WindSpeedGustMPH,Humidity,HourlyPrecipIn,Conditions,Clouds,dailyrainin,SolarRadiationWatts/m^2,SoftwareType,DateUTC
2013-03-17 00:12:00,37.7,29.0,30.07,NNE,30,3.0,10.0,71,0.00,,,0.00,0,weatherlink.com 1.10,2013-03-17 05:12:00,
2013-03-17 00:27:00,37.5,29.0,30.07,NE,51,3.0,9.0,71,0.00,,,0.00,0,weatherlink.com 1.10,2013-03-17 05:27:00,
2013-03-17 00:42:00,37.4,28.0,30.06,North,11,5.0,14.0,70,0.00,,,0.00,0,weatherlink.com 1.10,2013-03-17 05:42:00,
2013-03-17 00:57:00,37.1,28.0,30.05,NE,55,4.0,10.0,71,0.00,,,0.00,0,weatherlink.com 1.10,2013-03-17 05:57:00,
2013-03-17 01:12:00,37.0,28.0,30.06,ENE,64,7.0,12.0,71,0.00,,,0.00,0,weatherlink.com 1.10,2013-03-17 06:12:00,
2013-03-17 01:27:00,36.9,28.0,30.05,NE,52,5.0,11.0,71,0.00,,,0.00,0,weatherlink.com 1.10,2013-03-17 06:27:00,
2013-03-17 01:42:00,36.8,28.0,30.05,ENE,78,4.0,14.0,71,0.00,,,0.00,0,weatherlink.com 1.10,2013-03-17 06:42:00,
2013-03-17 01:57:00,36.8,28.0,30.06,NE,40,7.0,12.0,71,0.00,,,0.00,0,weatherlink.com 1.10,2013-03-17 06:57:00,
2013-03-17 02:12:00,36.6,28.0,30.06,NE,50,5.0,12.0,70,0.00,,,0.00,0,weatherlink.com 1.10,2013-03-17 07:12:00,
2013-03-17 02:27:00,36.5,28.0,30.06,ENE,59,4.0,9.0,70,0.00,,,0.00,0,weatherlink.com 1.10,2013-03-17 07:27:00,
2013-03-17 02:42:00,36.4,27.0,30.05,ENE,65,7.0,12.0,70,0.00,,,0.00,0,weatherlink.com 1.10,2013-03-17 07:42:00,
2013-03-17 02:57:00,36.2,28.0,30.06,ENE,62,3.0,10.0,71,0.00,,,0.00,0,weatherlink.com 1.10,2013-03-17 07:57:00,
2013-03-17 03:12:00,36.0,27.0,30.05,ENE,65,2.0,11.0,71,0.00,,,0.00,0,weatherlink.com 1.10,2013-03-17 08:12:00,
2013-03-17 03:27:00,35.7,27.0,30.05,East,88,6.0,13.0,72,0.00,,,0.00,0,weatherlink.com 1.10,2013-03-17 08:27:00,
2013-03-17 03:42:00,35.5,27.0,30.05,ENE,62,3.0,10.0,72,0.00,,,0.00,0,weatherlink.com 1.10,2013-03-17 08:42:00,
2013-03-17 03:57:00,35.3,27.0,30.05,East,94,6.0,10.0,73,0.00,,,0.00,0,weatherlink.com 1.10,2013-03-17 08:57:00,
2013-03-17 04:12:00,35.1,27.0,30.04,NE,44,5.0,12.0,73,0.00,,,0.00,0,weatherlink.com 1.10,2013-03-17 09:12:00,
2013-03-17 04:27:00,34.9,27.0,30.04,ENE,67,4.0,14.0,73,0.00,,,0.00,0,weatherlink.com 1.10,2013-03-17 09:27:00,
2013-03-17 04:42:00,34.7,27.0,30.03,NE,48,4.0,11.0,73,0.00,,,0.00,0,weatherlink.com 1.10,2013-03-17 09:42:00,
2013-03-17 04:57:00,34.6,27.0,30.02,NNE,24,6.0,14.0,74,0.00,,,0.00,0,weatherlink.com 1.10,2013-03-17 09:57:00,
2013-03-17 05:12:00,34.5,27.0,30.02,ESE,111,5.0,13.0,74,0.00,,,0.00,0,weatherlink.com 1.10,2013-03-17 10:12:00,
2013-03-17 05:27:00,34.3,27.0,30.01,ENE,61,4.0,11.0,74,0.00,,,0.00,0,weatherlink.com 1.10,2013-03-17 10:27:00,
2013-03-17 05:42:00,34.2,27.0,30.01,ENE,77,3.0,11.0,74,0.00,,,0.00,0,weatherlink.com 1.10,2013-03-17 10:42:00,
2013-03-17 05:57:00,34.1,27.0,30.01,ENE,78,5.0,9.0,74,0.00,,,0.00,0,weatherlink.com 1.10,2013-03-17 10:57:00,
2013-03-17 06:12:00,33.8,27.0,30.02,ENE,73,10.0,10.0,77,0.00,,,0.00,0,weatherlink.com 1.10,2013-03-17 11:12:00,
2013-03-17 06:27:00,33.4,28.0,30.03,ENE,62,4.0,11.0,79,0.00,,,0.00,0,weatherlink.com 1.10,2013-03-17 11:27:00,
2013-03-17 06:42:00,33.3,28.0,30.04,East,83,2.0,9.0,80,0.00,,,0.00,0,weatherlink.com 1.10,2013-03-17 11:42:00,
2013-03-17 06:57:00,33.2,28.0,30.03,NE,44,3.0,9.0,80,0.00,,,0.00,0,weatherlink.com 1.10,2013-03-17 11:57:00,
2013-03-17 07:12:00,33.1,28.0,30.04,ENE,72,5.0,9.0,80,0.00,,,0.00,0,weatherlink.com 1.10,2013-03-17 12:12:00,
2013-03-17 07:27:00,33.0,28.0,30.04,East,88,2.0,8.0,81,0.00,,,0.00,0,weatherlink.com 1.10,2013-03-17 12:27:00,
2013-03-17 07:42:00,33.0,28.0,30.03,ENE,67,3.0,12.0,81,0.00,,,0.00,5,weatherlink.com 1.10,2013-03-17 12:42:00,
2013-03-17 07:57:00,33.0,28.0,30.03,NE,38,6.0,13.0,82,0.00,,,0.00,14,weatherlink.com 1.10,2013-03-17 12:57:00,
2013-03-17 08:12:00,32.9,28.0,30.03,NE,52,3.0,9.0,83,0.00,,,0.00,32,weatherlink.com 1.10,2013-03-17 13:12:00,
2013-03-17 08:27:00,33.0,28.0,30.03,ENE,57,4.0,8.0,83,0.00,,,0.00,40,weatherlink.com 1.10,2013-03-17 13:27:00,
2013-03-17 08:42:00,32.9,28.0,30.03,ENE,60,3.0,9.0,82,0.00,,,0.00,47,weatherlink.com 1.10,2013-03-17 13:42:00,
2013-03-17 08:57:00,33.0,28.0,30.03,East,90,5.0,10.0,83,0.00,,,0.00,40,weatherlink.com 1.10,2013-03-17 13:57:00,
2013-03-17 09:12:00,32.9,28.0,30.04,NE,38,2.0,9.0,83,0.00,,,0.00,44,weatherlink.com 1.10,2013-03-17 14:12:00,
2013-03-17 09:27:00,32.9,28.0,30.04,ENE,65,2.0,10.0,83,0.00,,,0.00,69,weatherlink.com 1.10,2013-03-17 14:27:00,
2013-03-17 09:43:00,33.0,28.0,30.04,NE,54,3.0,9.0,83,0.00,,,0.00,67,weatherlink.com 1.10,2013-03-17 14:43:00,
2013-03-17 09:58:00,33.4,29.0,30.03,ENE,61,5.0,10.0,83,0.00,,,0.00,121,weatherlink.com 1.10,2013-03-17 14:58:00,
2013-03-17 10:13:00,34.1,30.0,30.02,ENE,70,4.0,10.0,83,0.00,,,0.00,127,weatherlink.com 1.10,2013-03-17 15:13:00,
2013-03-17 10:28:00,34.1,30.0,30.02,East,88,2.0,11.0,84,0.00,,,0.00,130,weatherlink.com 1.10,2013-03-17 15:28:00,
2013-03-17 10:43:00,34.5,31.0,30.02,East,82,7.0,9.0,85,0.00,,,0.00,153,weatherlink.com 1.10,2013-03-17 15:43:00,
2013-03-17 10:58:00,34.1,30.0,30.01,ENE,76,8.0,16.0,84,0.00,,,0.00,190,weatherlink.com 1.10,2013-03-17 15:58:00,
2013-03-17 11:13:00,34.5,30.0,30.00,ESE,120,5.0,9.0,84,0.00,,,0.00,160,weatherlink.com 1.10,2013-03-17 16:13:00,
2013-03-17 11:28:00,34.6,30.0,30.01,NE,48,7.0,12.0,82,0.00,,,0.00,178,weatherlink.com 1.10,2013-03-17 16:28:00,
2013-03-17 11:43:00,34.7,30.0,30.00,ENE,77,7.0,11.0,82,0.00,,,0.00,167,weatherlink.com 1.10,2013-03-17 16:43:00,
2013-03-17 11:58:00,35.1,30.0,29.99,NE,55,7.0,11.0,83,0.00,,,0.00,207,weatherlink.com 1.10,2013-03-17 16:58:00,
2013-03-17 12:13:00,35.2,31.0,29.98,ESE,108,3.0,11.0,83,0.00,,,0.00,223,weatherlink.com 1.10,2013-03-17 17:13:00,
2013-03-17 12:28:00,35.1,30.0,29.98,ENE,70,3.0,13.0,83,0.00,,,0.00,153,weatherlink.com 1.10,2013-03-17 17:28:00,
2013-03-17 12:43:00,35.5,31.0,29.97,ESE,107,8.0,9.0,83,0.00,,,0.00,169,weatherlink.com 1.10,2013-03-17 17:43:00,
2013-03-17 12:58:00,35.9,31.0,29.96,ENE,70,8.0,11.0,82,0.00,,,0.00,151,weatherlink.com 1.10,2013-03-17 17:58:00,
2013-03-17 13:13:00,35.9,31.0,29.95,East,92,8.0,11.0,83,0.00,,,0.00,153,weatherlink.com 1.10,2013-03-17 18:13:00,
2013-03-17 13:28:00,36.1,31.0,29.94,East,94,7.0,10.0,83,0.00,,,0.00,134,weatherlink.com 1.10,2013-03-17 18:28:00,
2013-03-17 13:43:00,35.7,31.0,29.94,ESE,112,3.0,12.0,84,0.01,,,0.01,114,weatherlink.com 1.10,2013-03-17 18:43:00,
2013-03-17 13:58:00,35.7,31.0,29.92,East,81,7.0,11.0,84,0.01,,,0.01,111,weatherlink.com 1.10,2013-03-17 18:58:00,
2013-03-17 14:13:00,35.6,32.0,29.90,NE,55,4.0,14.0,85,0.01,,,0.01,88,weatherlink.com 1.10,2013-03-17 19:13:00,
2013-03-17 14:28:00,35.6,32.0,29.90,ENE,63,11.0,11.0,86,0.01,,,0.01,70,weatherlink.com 1.10,2013-03-17 19:28:00,
2013-03-17 14:43:00,35.5,32.0,29.89,East,90,6.0,10.0,86,0.00,,,0.01,86,weatherlink.com 1.10,2013-03-17 19:43:00,
2013-03-17 14:58:00,35.5,32.0,29.88,ENE,75,4.0,9.0,87,0.00,,,0.01,54,weatherlink.com 1.10,2013-03-17 19:58:00,
2013-03-17 15:13:00,35.4,32.0,29.88,ESE,109,10.0,10.0,87,0.00,,,0.01,40,weatherlink.com 1.10,2013-03-17 20:13:00,
2013-03-17 15:28:00,35.4,32.0,29.86,East,81,2.0,11.0,87,0.01,,,0.02,47,weatherlink.com 1.10,2013-03-17 20:28:00,
2013-03-17 15:43:00,35.5,32.0,29.85,ENE,65,7.0,9.0,87,0.01,,,0.02,54,weatherlink.com 1.10,2013-03-17 20:43:00,
2013-03-17 15:58:00,35.6,32.0,29.85,East,95,2.0,8.0,87,0.01,,,0.02,28,weatherlink.com 1.10,2013-03-17 20:58:00,
2013-03-17 16:13:00,35.5,32.0,29.85,ENE,58,2.0,8.0,88,0.02,,,0.03,33,weatherlink.com 1.10,2013-03-17 21:13:00,
2013-03-17 16:28:00,35.3,32.0,29.85,NE,44,4.0,9.0,88,0.03,,,0.05,23,weatherlink.com 1.10,2013-03-17 21:28:00,
2013-03-17 16:43:00,35.2,32.0,29.85,NE,42,3.0,7.0,89,0.05,,,0.07,21,weatherlink.com 1.10,2013-03-17 21:43:00,
2013-03-17 16:58:00,35.1,33.0,29.84,East,88,2.0,10.0,90,0.05,,,0.07,18,weatherlink.com 1.10,2013-03-17 21:58:00,
2013-03-17 17:13:00,35.0,32.0,29.83,ENE,75,7.0,10.0,90,0.05,,,0.08,16,weatherlink.com 1.10,2013-03-17 22:13:00,
2013-03-17 17:28:00,34.9,32.0,29.82,East,95,2.0,11.0,90,0.03,,,0.08,30,weatherlink.com 1.10,2013-03-17 22:28:00,
2013-03-17 17:44:00,34.6,32.0,29.81,ENE,71,7.0,14.0,90,0.02,,,0.09,18,weatherlink.com 1.10,2013-03-17 22:44:00,
2013-03-17 17:59:00,34.4,32.0,29.81,ENE,70,4.0,8.0,91,0.02,,,0.09,26,weatherlink.com 1.10,2013-03-17 22:59:00,
2013-03-17 18:14:00,34.2,32.0,29.81,East,97,6.0,10.0,91,0.01,,,0.09,12,weatherlink.com 1.10,2013-03-17 23:14:00,
2013-03-17 18:29:00,34.2,32.0,29.80,ENE,73,4.0,11.0,91,0.02,,,0.10,19,weatherlink.com 1.10,2013-03-17 23:29:00,
2013-03-17 18:44:00,34.1,32.0,29.80,NE,42,4.0,5.0,92,0.01,,,0.10,9,weatherlink.com 1.10,2013-03-17 23:44:00,
2013-03-17 18:59:00,34.1,32.0,29.80,ENE,75,3.0,7.0,92,0.01,,,0.10,5,weatherlink.com 1.10,2013-03-17 23:59:00,
2013-03-17 19:14:00,34.1,32.0,29.81,East,80,3.0,8.0,92,0.02,,,0.11,0,weatherlink.com 1.10,2013-03-18 00:14:00,
2013-03-17 19:29:00,34.1,32.0,29.80,East,84,5.0,10.0,92,0.01,,,0.11,0,weatherlink.com 1.10,2013-03-18 00:29:00,
2013-03-17 19:44:00,34.1,32.0,29.80,East,80,5.0,8.0,92,0.01,,,0.11,0,weatherlink.com 1.10,2013-03-18 00:44:00,
2013-03-17 19:59:00,34.1,32.0,29.79,East,85,2.0,8.0,92,0.01,,,0.11,0,weatherlink.com 1.10,2013-03-18 00:59:00,
2013-03-17 20:14:00,34.2,32.0,29.79,East,97,3.0,9.0,92,0.00,,,0.11,0,weatherlink.com 1.10,2013-03-18 01:14:00,
2013-03-17 20:29:00,34.3,32.0,29.78,East,98,3.0,8.0,92,0.00,,,0.11,0,weatherlink.com 1.10,2013-03-18 01:29:00,
2013-03-17 20:44:00,34.4,32.0,29.77,ENE,67,3.0,9.0,92,0.00,,,0.11,0,weatherlink.com 1.10,2013-03-18 01:44:00,
2013-03-17 20:59:00,34.6,32.0,29.79,ESE,107,5.0,9.0,91,0.00,,,0.11,0,weatherlink.com 1.10,2013-03-18 01:59:00,
2013-03-17 21:14:00,34.8,33.0,29.80,East,84,2.0,6.0,91,0.00,,,0.11,0,weatherlink.com 1.10,2013-03-18 02:14:00,
2013-03-17 21:29:00,34.9,33.0,29.80,East,81,3.0,4.0,91,0.00,,,0.11,0,weatherlink.com 1.10,2013-03-18 02:29:00,
2013-03-17 21:44:00,35.0,33.0,29.80,East,80,2.0,5.0,91,0.00,,,0.11,0,weatherlink.com 1.10,2013-03-18 02:44:00,
2013-03-17 21:59:00,35.1,33.0,29.80,East,82,1.0,5.0,91,0.00,,,0.11,0,weatherlink.com 1.10,2013-03-18 02:59:00,
2013-03-17 22:14:00,35.1,33.0,29.80,ENE,74,1.0,5.0,91,0.00,,,0.11,0,weatherlink.com 1.10,2013-03-18 03:14:00,
2013-03-17 22:29:00,35.1,33.0,29.79,East,96,3.0,7.0,91,0.00,,,0.11,0,weatherlink.com 1.10,2013-03-18 03:29:00,
2013-03-17 22:44:00,35.1,33.0,29.79,East,101,1.0,6.0,91,0.00,,,0.11,0,weatherlink.com 1.10,2013-03-18 03:44:00,
2013-03-17 22:59:00,35.2,33.0,29.79,ENE,71,3.0,7.0,91,0.00,,,0.11,0,weatherlink.com 1.10,2013-03-18 03:59:00,
2013-03-17 23:14:00,35.2,33.0,29.79,East,84,1.0,5.0,91,0.00,,,0.11,0,weatherlink.com 1.10,2013-03-18 04:14:00,
2013-03-17 23:29:00,35.2,33.0,29.78,ENE,74,4.0,5.0,91,0.00,,,0.11,0,weatherlink.com 1.10,2013-03-18 04:29:00,
2013-03-17 23:44:00,35.3,33.0,29.79,East,82,0.0,6.0,91,0.00,,,0.11,0,weatherlink.com 1.10,2013-03-18 04:44:00,
2013-03-17 23:59:00,35.3,33.0,29.80,East,85,0.0,5.0,91,0.00,,,0.11,0,weatherlink.com 1.10,2013-03-18 04:59:00,